#timestamp,LO_Frequency,Hit,StdDev 
1690855215.5,286047000.1,N
1690855235.4,286046999.7,N
1690855255.2,286047001.8,N
1690855275.0,286047002.0,N
1690855276.0,286047002.0,N
1690855295.8,286047002.6,N
1690855315.6,286047002.7,N
1690855335.5,286047002.4,N
1690855355.3,286047000.5,N
1690855375.1,286047000.9,N
1690855395.9,286046998.1,N
1690855415.7,286046998.2,N
1690855435.6,286046998.7,N
1690855455.4,286046999.3,N
1690855475.2,286046998.3,N
1690855495.1,286047000.9,N
1690855496.0,286047000.9,N
1690855515.8,286047000.4,N
1690855535.6,286047000.5,N
1690855555.5,286046999.9,N
1690855575.3,286047000.3,N
1690855595.2,286047000.7,N
1690855615.9,286047000.8,N
1690855635.7,286047000.8,N
1690855655.6,286047001.1,N
1690855675.4,286047000.7,N
1690855695.2,286047001.1,N
1690855715.1,286047000.4,N
1690855716.0,286047000.4,N
1690855735.8,286046999.7,N
1690855755.7,286047001.9,N
1690855775.5,286047002.6,N
1690855795.3,286046999.8,N
1690855815.2,286047000.5,N
1690855835.0,286047002.8,N
1690855835.9,286047002.8,N
1690855855.7,286047000.4,N
1690855875.6,286047000.6,N
1690855895.4,286047000.3,N
1690855915.3,286047001.1,N
1690855935.1,286047000.7,N
1690855936.0,286047000.7,N
1690855955.8,286047000.3,N
1690855975.7,286047001.1,N
1690855995.5,286046998.4,N
1690856015.3,286046998.2,N
1690856035.2,286046998.1,N
1690856055.0,286047000.9,N
1690856055.9,286047000.9,N
1690856075.8,286047000.4,N
1690856095.6,286047000.3,N
1690856115.4,286047000.6,N
1690856135.3,286047000.0,N
1690856155.1,286047000.4,N
1690856175.9,286047000.8,N
1690856195.7,286046998.1,N
1690856215.5,286047001.1,N
1690856235.4,286047000.4,N
1690856255.2,286047001.0,N
1690856275.1,286047000.0,N
1690856276.0,286047000.0,N
1690856295.8,286047000.7,N
1690856315.6,286047000.3,N
1690856335.5,286046999.8,N
1690856355.3,286047002.3,N
1690856375.2,286047001.7,N
1690856395.9,286047001.8,N
1690856415.7,286047002.2,N
1690856435.6,286047001.4,N
1690856455.4,286047001.4,N
1690856475.2,286047001.3,N
1690856495.1,286047002.6,N
1690856496.0,286047002.6,N
1690856515.8,286046999.9,N
1690856535.7,286046998.2,N
1690856555.5,286047001.2,N
1690856575.3,286047000.6,N
1690856595.2,286047000.4,N
1690856615.0,286047002.3,N
1690856615.9,286047002.3,N
1690856635.8,286046999.8,N
1690856655.6,286047000.6,N
1690856675.4,286047002.2,N
1690856695.3,286047000.5,N
1690856715.1,286047001.0,N
1690856735.8,286046998.1,N
1690856755.7,286047000.7,N
1690856775.5,286047001.2,N
1690856795.4,286047000.7,N
1690856815.2,286047001.2,N
1690856835.0,286047000.7,N
1690856835.9,286047000.7,N
1690856855.8,286046999.7,N
1690856875.6,286046999.7,N
1690856895.5,286047000.2,N
1690856915.3,286046999.8,N
1690856935.1,286047000.4,N
1690856955.9,286047000.3,N
1690856975.7,286047000.2,N
1690856995.5,286047000.2,N
1690857015.4,286047000.0,N
1690857035.2,286047002.8,N
1690857055.1,286047000.6,N
1690857056.0,286047000.6,N
1690857075.8,286047000.8,N
1690857095.6,286046999.5,N
1690857115.5,286046999.2,N
1690857135.3,286046999.4,N
1690857155.2,286046999.5,N
1690857175.9,286046999.5,N
1690857195.7,286046998.8,N
1690857215.6,286046998.3,N
1690857235.4,286047001.1,N
1690857255.2,286046998.2,N
1690857275.1,286046998.8,N
1690857276.0,286046998.8,N
1690857295.8,286047001.2,N
1690857315.7,286046998.5,N
1690857335.5,286047001.1,N
1690857355.3,286047001.1,N
1690857375.2,286046998.3,N
1690857395.0,286047001.2,N
1690857395.9,286047001.2,N
1690857415.7,286046998.2,N
1690857435.6,286046998.7,N
1690857455.4,286046999.0,N
1690857475.3,286046998.9,N
1690857495.1,286046999.1,N
1690857496.0,286046999.1,N
1690857515.8,286046996.9,N
1690857535.7,286046997.0,N
1690857555.5,286046997.4,N
1690857575.3,286046997.4,N
1690857595.2,286046995.0,Y
1690857615.0,286046996.7,P
1690857615.9,286046996.7,N
1690857635.8,286046997.0,N
1690857655.6,286046999.2,N
1690857675.4,286046999.2,N
1690857695.3,286046999.6,N
1690857715.1,286046997.2,N
1690857735.9,286046997.2,N
1690857755.7,286046995.4,Y
1690857775.5,286046996.9,P
1690857795.4,286046996.5,P
1690857815.2,286046999.6,N
1690857835.1,286046999.0,N
1690857836.0,286046999.0,N
1690857855.8,286046999.5,N
1690857875.6,286046999.2,N
1690857895.5,286046998.6,N
1690857915.3,286046999.2,N
1690857935.1,286046999.3,N
1690857955.9,286046996.9,Y
1690857975.7,286046998.2,P
1690857995.6,286047000.2,N
1690858015.4,286047002.8,P
1690858035.2,286046999.9,N
1690858055.1,286047001.2,N
1690858056.0,286047001.2,N
1690858075.8,286046998.3,N
1690858095.7,286046998.8,N
1690858115.5,286046998.6,N
1690858135.3,286046998.5,N
1690858155.2,286046998.1,N
1690858175.9,286046998.4,N
1690858195.7,286046998.2,N
1690858215.6,286046998.5,N
1690858235.4,286046998.6,N
1690858255.3,286046998.2,N
1690858275.1,286047000.7,N
1690858276.0,286047000.7,N
1690858295.8,286047000.7,N
1690858315.7,286047000.9,N
1690858335.5,286047000.5,N
1690858355.3,286047000.8,N
1690858375.2,286046998.6,N
1690858395.0,286046998.5,N
1690858395.9,286046998.5,N
1690858415.8,286046998.1,N
1690858435.6,286047000.4,N
1690858455.4,286047000.6,N
1690858475.3,286047000.8,N
1690858495.1,286047001.0,N
1690858515.8,286046999.8,N
1690858535.7,286046999.9,N
1690858555.5,286047000.5,N
1690858575.4,286047000.8,N
1690858595.2,286047001.1,N
1690858615.0,286047000.3,N
1690858615.9,286047000.3,N
1690858635.8,286047000.5,N
1690858655.6,286046999.9,N
1690858675.4,286047002.7,N
1690858695.3,286047000.5,N
1690858715.1,286047000.6,N
1690858735.9,286047000.6,N
1690858755.7,286047001.1,N
1690858775.5,286047000.3,N
1690858795.4,286047002.8,N
